Location: Castillon
(43.0896°N, 0.2156°E)
Time: 15:11:48
(UTC+00:00)

Cosmos 220 Rocket - Pass Details

Date: 16 June 2021
Orbit: 574 x 616 km, 74.0° (Epoch: 01 August)

Event Time Altitude Azimuth Distance (km) Brightness Sun altitude
Rises 20:33:47 0° 202° (SSW) 2,828 7.2 -8.4°
Reaches altitude 10° 20:36:01 10° 204° (SSW) 1,923 6.4 -8.7°
Maximum altitude 20:40:18 76° 291° (WNW) 612 4.2 -9.2°
Drops below altitude 10° 20:44:34 10° 17° (NNE) 1,913 7.0 -9.8°
Sets 20:46:47 0° 19° (NNE) 2,812 7.8 -10.1°
